Location: Sunny Point
(33.0946°N, 85.0574°W)
Time: 11:41:24
(UTC+00:00)

ISS - Visible Passes

Search period start: 23 May 2024 00:00
Search period end: 02 June 2024 00:00
Orbit: 409 x 414 km, 51.6° (Epoch: 23 May)

Date Brightness Start Highest point End Pass type
(mag) Time Alt. Az. Time Alt. Az. Time Alt. Az.
23 May -0.6 03:34:58 10° N 03:35:42 13° N 03:35:42 13° N visible
24 May -0.9 02:46:03 10° NNE 02:46:59 11° NNE 02:47:25 11° NE visible
25 May -1.0 03:30:47 10° NNW 03:31:55 19° NNW 03:31:55 19° NNW visible
26 May -1.9 02:41:01 10° NNW 02:43:37 23° NNE 02:43:37 23° NNE visible
27 May -1.3 01:51:29 10° N 01:53:23 14° NNE 01:55:17 10° ENE visible
27 May -1.1 03:26:59 10° NW 03:28:06 19° WNW 03:28:06 19° WNW visible
28 May -3.5 02:36:46 10° NW 02:39:49 62° N 02:39:49 62° N visible
29 May -2.6 01:46:43 10° NNW 01:49:46 32° NE 01:51:32 19° E visible
29 May -0.8 03:23:55 10° W 03:24:19 12° W 03:24:19 12° W visible
30 May -2.7 02:32:57 10° WNW 02:36:01 35° SW 02:36:04 35° SW visible
31 May -3.8 01:42:26 10° NW 01:45:44 78° SW 01:47:49 21° SE visible
01 Jun -1.1 02:30:28 10° WSW 02:31:35 11° SW 02:32:24 11° SW visible
